www.pogodaiklimat.ru

Погода и климат >> Архив погоды >> Беларусь >> Брагин


ПОГОДА в Брагине

  • Прогноз погоды в Брагине
  • Монитор погоды в Брагине

АРХИВ ПОГОДЫ в Брагине

Время (UTC), дата Ветер
(напр.,м/с)
 
Видим.   Явления Облачность Т
(С)
Тd
(С)
f
(%)
Тe
(С)
Тes
(С)
Комфортность P
(гПа)
Po
(гПа)
Тmin
(С)
Tmax
(С)
R
(мм)
R24
(мм)
S
(см)
06 12.08 В 2 13 км 3/3 1000 м
[Cu med, cong]
+16.7 +15.0 90 +17 +21 1019.3 1005.5 +10.6
09 12.08 В 2 30 км ясно +23.2 +16.5 66 +28 +41 душно 1019.2 1005.8
12 12.08 ЮВ 1 45 км 5/5 1000 м
[Cu med, cong]
+27.4 +16.2 50 +31 +37 душно 1018.2 1005.0
15 12.08 ЮВ 2 >70 км 3/1 1000 м
[Cu hum Ci fib]
+27.7 +15.2 46 +30 +33 жарко 1016.8 1003.7
18 12.08 ЮВ 2 45 км 3/0
[Ci fib]
+23.1 +15.9 64 +28 +28 душно 1016.5 1003.1 +28.3
06 13.08 Ю 4 45 км 8/0
[Ci]
+23.5 +16.5 65 +27 +30 душно 1012.0 998.7 +18.3
09 13.08 Ю 6
{10}
45 км 9/3 1000 м
[Cu med, cong Ci]
+30.0 +19.2 52 +35 +38 очень
душно
1010.3 997.4
12 13.08 ЮЗ 6
{11}
35 км 8/4 1000 м
[Cu med, cong Ci]
+32.4 +20.1 48 +39 +41 очень
душно
1009.4 996.6
15 13.08 З 5
{18}
15 км в посл. час гроза {ливн. осадки} 6/6 540 м
[Cb calv]
+25.4 +23.2 88 +34 +35 очень
душно
1009.4 996.6
18 13.08 СЗ 3 45 км {гроза, ливн. осадки} 9/0 2000 м
[Ac trans Ci]
+23.4 +20.0 81 +30 +30 очень
душно
1012.4 999.1 +33.3 6
06 14.08 В 3 6000 м дымка 10/10 270 м
[St]
+19.1 +18.1 94 +21 +21 комфорт 1013.8 1000.2 +15.9
09 14.08 С 1 10 км 10/10 660 м
[Sc]
+21.6 +19.9 90 +27 +27 душно 1013.9 1000.5
12 14.08 В 3 40 км 9/0 2000 м
[Ac und]
+25.3 +20.7 76 +32 +35 очень
душно
1010.7 997.5
15 14.08 ЮВ 3 35 км 9/3 1000 м
[Cu med, cong Ac und]
+28.3 +21.5 67 +36 +37 очень
душно
1007.4 994.4
18 14.08 Ю 3 40 км 5/0 2000 м
[Ac trans]
+25.9 +17.6 60 +30 +30 душно 1006.4 993.3 +28.9
06 15.08 С 5 60 км 10/10 720 м
[Sc]
+15.6 +13.5 87 +14 +14 1013.3 999.6 +15.2
09 15.08 С 5
{10}
60 км 9/9 800 м
[Sc]
+17.9 +12.7 72 +18 +18 1013.7 1000.1
12 15.08 С 5
{10}
40 км 9/9 1110 м
[Cu med, cong]
+19.7 +12.4 63 +21 +22 комфорт 1013.7 1000.2
15 15.08 С 4
{10}
50 км 10/10 870 м
[Sc]
+17.5 +12.9 74 +17 +17 1013.4 999.8
18 15.08 С 4 10 км в посл. час ливневой дождь 10/10 800 м
[Sc]
+14.8 +13.1 90 +14 +14 1014.0 1000.2 +20.7 0.1
06 16.08 С 3 30 км 9/9 840 м
[Sc]
+15.3 +13.5 89 +15 +15 1013.1 999.3 +14.0 1
09 16.08 С 4 50 км 10/10 870 м
[Sc]
+18.0 +13.4 74 +18 +18 1012.7 999.1
12 16.08 С 5
{10}
45 км 10/10 870 м
[Sc]
+17.2 +13.5 79 +17 +17 1013.4 999.7
15 16.08 С 5
{10}
40 км 10/10 840 м
[Sc]
+17.0 +12.5 75 +16 +16 1013.6 999.9
18 16.08 С 3 40 км 10/10 840 м
[Sc]
+15.4 +12.8 84 +15 +15 1014.0 1000.2 +18.5
06 17.08 С 4 55 км 10/10 800 м
[Sc]
+13.9 +11.1 83 +12 +12 1013.4 999.6 +12.7
09 17.08 С 5 65 км 10/10 800 м
[Sc]
+15.4 +11.7 79 +14 +14 1013.5 999.7
12 17.08 СЗ 3
{10}
10 км слаб. ливневой дождь 10/10 570 м
[Cb cap]
+15.4 +13.8 90 +15 +15 1013.6 999.8
15 17.08 СЗ 2 9000 м слаб. ливневой дождь 10/10 570 м
[Cb cap]
+15.6 +14.2 91 +15 +15 1012.9 999.2
18 17.08 С 2 9000 м дымка {ливн. осадки} 8/5 600 м
[Sc Ac trans]
+15.0 +13.7 92 +15 +15 1013.2 999.4 +17.1 2
06 18.08 З 3 45 км 1/0
[Ci fib]
+15.4 +13.1 86 +15 +19 1013.1 999.4 +8.5
09 18.08 СЗ 4 65 км 8/8 1110 м
[Cu med, cong]
+21.5 +10.3 49 +23 +25 комфорт 1013.3 999.9
12 18.08 СЗ 4
{10}
40 км 4/4 1000 м
[Cu hum]
+23.9 +10.3 42 +25 +29 комфорт 1013.1 999.8
15 18.08 С 2 70 км 3/3 1000 м
[Cu hum]
+24.4 +11.0 43 +26 +27 жарко 1013.6 1000.3
18 18.08 штиль 0 40 км ясно +17.6 +13.8 78 +18 +18 1014.9 1001.2 +25.0

 

Местоположение метеостанции Брагин (Гомельская область, Беларусь): широта 51.79 долгота 30.26 высота над уровнем моря 116 м.

В архиве по умолчанию представлена погода в Брагине за последнюю неделю. Архивные данные за месяц целиком и за предыдущие месяцы, начиная с января 2011 года, Вы можете получить, выбрав интересующий диапазон дат из раскрывающегося списка и нажав кнопку "Ввод!".


*Определитесь, кто Вы:
робот инопланетянин человек

Внимание! Время в таблицах - всемирное. Для получения местного времени необходимо прибавить поправку, которая равна 3 ч.

Смотрите также архив погоды в соседних городах и на ближайших метеорологических станциях:

Погода в Чернобыле (Киевская область, Украина) (57 км)
Погода в Василевичах (Гомельская область, Беларусь) (59 км)
Погода в Чернигове (Черниговская область, Украина) (77 км)
Погода в Мозыре (Гомельская область, Беларусь) (78 км)
Погода в Гомеле (Гомельская область, Беларусь) (83 км)
Погода в Остере (Черниговская область, Украина) (103 км)
Погода в Овруче (Житомирская область, Украина) (115 км)
Погода в Щорсе (Черниговская область, Украина) (118 км)
Погода в Покошичах (Черниговская область, Украина) (124 км)
Погода в Жлобине (Гомельская область, Беларусь) (124 км)

Пояснения к столбцам:

Ветер - указаны скорость ветра в м/с - средняя за 10 мин, порывы в срок и между сроками (в фигурных скобках) и направление, откуда дует ветер: С - северный, СВ - северо-восточный, В - восточный, ЮВ - юго-восточный, Ю - южный, ЮЗ - юго-западный, З - западный, СЗ - северо-западный.
Видимость - горизонтальная дальность видимости в метрах или километрах. При видимости от 1 до 10 км при отсутствии осадков обычно наблюдается дымка, при ухудшении видимости до 1 км и менее - туман. В сухую погоду видимость может ухудшаться дымом, пылью или мглою.
Явления - указаны атмосферные явления, наблюдавшиеся в срок или в последний час перед сроком; фигурными скобками обозначены явления, наблюдавшиеся между сроками (за 1-3 часа до срока); квадратными скобками обозначены град или гололедные отложения с указанием их диаметра в мм.
Облачность - указаны через наклонную черту общая и нижняя облачность в баллах и высота нижней границы облаков в метрах; квадратными скобками обозначены формы облаков: Ci - перистые, Cs - перисто-слоистые, Cc - перисто-кучевые, Ac - высококучевые, As - высокослоистые, Sc - слоисто-кучевые, Ns - слоисто-дождевые, Cu - кучевые, Cb - кучево-дождевые. Подробнее классификацию облаков см. в Атласе облаков (PDF).
T - Температура воздуха - температура, измеренная на высоте 2 м над землей.
Td - Температура точки росы - температура, при понижении до которой содержащийся в воздухе водяной пар достигнет насыщения.
f - Относительная влажность воздуха - влажноcть воздуха, измеренная на высоте 2 м над землей.
Te - Эффективная температура - температура, которую ощущает одетый по сезону человек в тени. Характеристика душности погоды. При расчете учитывается влияние влажности воздуха и скорости ветра на теплоощущения человека.
Tes - Эффективная температура на солнце - температура, которую ощущает человек, с поправкой на солнечный нагрев. Характеристика знойности погоды. Зависит от высоты солнца над горизонтом, облачности и скорости ветра. Ночью, в пасмурную погоду, а также при ветре 12 м/с и более поправка равна нулю.
P - Атмосферное давление - приведенное к уровню моря атмосферное давление.
Po - Атмосферное давление - измеренное на уровне метеостанции атмосферное давление.
Tmin - Минимальная температура - минимум температуры воздуха на высоте 2 м над землей.
Tmax - Максимальная температура - максимум температуры воздуха на высоте 2 м над землей.
R - Количество осадков - Количество выпавших осадков за период времени, мм. При наведении курсора мыши на число - период времени, за который выпало указанное количество осадков.
R24 - Количество осадков - Количество выпавших осадков за 24 часа, мм.
S - Снежный покров - Высота снежного покрова, см. При наведении курсора мыши на число - состояние снежного покрова и степень покрытия местности в баллах.